Station NEAW1 - 9443090 - Neah Bay, WA Image indicating link to RSS feed of recent meteorological observations for station NEAW1


Conditions at NEAW1 as of
(2:30 am PDT)
0930 GMT on 05/30/2024:
     

Click on the graph icon in the table below to see a time series plot of the last five days of that observation.

5-day plot - Atmospheric Pressure Atmospheric Pressure (PRES):30.40 in
5-day plot - Water Temperature Water Temperature (WTMP): 50.7 °F
NOS Water Level Observation Network Water Level
Previous observations
TIME
(PDT)
5-day plot - Wind Direction
WDIR
 
5-day plot - Wind Speed
WSPD
kts
5-day plot - Wind Gust
GST
kts
5-day plot - Wave Height
WVHT
ft
5-day plot - Dominant Wave Period
DPD
sec
5-day plot - Average Wave Period
APD
sec
5-day plot - Mean Wave Direction
MWD
 
5-day plot - Atmospheric Pressure
PRES
in
5-day plot - Pressure Tendency
PTDY
in
5-day plot - Air Temperature
ATMP
°F
5-day plot - Water Temperature
WTMP
°F
5-day plot - Dew Point
DEWP
°F
5-day plot - Salinity
SAL
psu
5-day plot - Visibility
VIS
nmi
5-day plot - Tide (above MLLW)
TIDE
ft
2024-05-30 02:24 am-------30.40-- 51.1----
2024-05-30 02:18 am-------30.40-- 51.1----
2024-05-30 02:12 am-------30.40-- 51.1----
2024-05-30 02:06 am-------30.40-- 51.3----
2024-05-30 02:00 am-------30.40+0.01- 51.3----
2024-05-30 01:54 am-------30.40-- 51.3----
2024-05-30 01:48 am-------30.40-- 51.3----
2024-05-30 01:42 am-------30.40-- 51.3----
2024-05-30 01:36 am-------30.40-- 51.3----
2024-05-30 01:30 am-------30.40-- 51.4----
2024-05-30 01:24 am-------30.40-- 51.4----
2024-05-30 01:18 am-------30.40-- 51.4----
2024-05-30 01:12 am-------30.40-- 51.4----
2024-05-30 01:06 am-------30.40-- 51.4----
2024-05-30 01:00 am-------30.40+0.00- 51.4----
2024-05-30 12:54 am-------30.40-- 51.4----
2024-05-30 12:48 am-------30.40-- 51.4----
2024-05-30 12:42 am-------30.40-- 51.4----
2024-05-30 12:36 am-------30.40-- 51.4----
2024-05-30 12:30 am-------30.40-- 51.4----
2024-05-30 12:24 am-------30.40-- 51.6----
2024-05-30 12:18 am-------30.40-- 51.6----
2024-05-30 12:12 am-------30.40-- 51.6----
2024-05-30 12:06 am-------30.40-- 51.4----
2024-05-30 12:00 am-------30.40+0.02- 51.4----
2024-05-29 11:54 pm-------30.40-- 51.6----
2024-05-29 11:48 pm-------30.40-- 51.6----
2024-05-29 11:42 pm-------30.40-- 51.8----
2024-05-29 11:36 pm-------30.40-- 51.8----
2024-05-29 11:30 pm-------30.40-- 51.8----
2024-05-29 11:24 pm-------30.40-- 51.8----
2024-05-29 11:18 pm-------30.40-- 52.0----
2024-05-29 11:12 pm-------30.40-- 52.0----
2024-05-29 11:06 pm-------30.39-- 52.2----
2024-05-29 11:00 pm-------30.39+0.01- 52.2----
2024-05-29 10:54 pm-------30.40-- 52.2----
2024-05-29 10:48 pm-------30.39-- 52.2----
2024-05-29 10:42 pm-------30.39-- 52.0----
2024-05-29 10:36 pm-------30.39-- 52.0----
2024-05-29 10:30 pm-------30.40-- 52.0----
2024-05-29 10:24 pm-------30.40-- 52.0----
2024-05-29 10:18 pm-------30.40-- 52.0----
2024-05-29 10:12 pm-------30.40-- 52.0----
2024-05-29 10:06 pm-------30.40-- 51.8----
2024-05-29 10:00 pm-------30.40+0.02- 52.0----
2024-05-29 09:54 pm-------30.40-- 51.8----
2024-05-29 09:48 pm-------30.40-- 51.8----
2024-05-29 09:42 pm-------30.40-- 51.8----
2024-05-29 09:36 pm-------30.39-- 51.8----
2024-05-29 09:30 pm-------30.39-- 51.6----
2024-05-29 09:24 pm-------30.39-- 51.4----
2024-05-29 09:18 pm-------30.38-- 51.3----
2024-05-29 09:12 pm-------30.38-- 51.1----
2024-05-29 09:06 pm-------30.38-- 51.3----
2024-05-29 09:00 pm-------30.38+0.01- 51.3----
2024-05-29 08:54 pm-------30.38-- 51.4----
2024-05-29 08:48 pm-------30.38-- 51.4----
2024-05-29 08:42 pm-------30.38-- 51.4----
2024-05-29 08:36 pm-------30.38-- 51.6----
2024-05-29 08:30 pm-------30.38-- 51.6----
2024-05-29 08:24 pm-------30.38-- 51.8----
2024-05-29 08:18 pm-------30.38-- 51.8----
2024-05-29 08:12 pm-------30.38-- 52.0----
2024-05-29 08:06 pm-------30.38-- 52.2----
2024-05-29 08:00 pm-------30.38+0.02- 52.3----
2024-05-29 07:54 pm-------30.38-- 52.3----
2024-05-29 07:48 pm-------30.38-- 52.3----
2024-05-29 07:42 pm-------30.38-- 52.3----
2024-05-29 07:36 pm-------30.38-- 52.5----
2024-05-29 07:30 pm-------30.38-- 52.5----
2024-05-29 07:24 pm-------30.38-- 52.5----
2024-05-29 07:18 pm-------30.37-- 52.5----
2024-05-29 07:12 pm-------30.37-- 52.5----
2024-05-29 07:06 pm-------30.37-- 52.5----
2024-05-29 07:00 pm-------30.37+0.02- 52.5----
2024-05-29 06:54 pm-------30.37-- 52.5----
2024-05-29 06:48 pm-------30.37-- 52.5----
2024-05-29 06:42 pm-------30.37-- 52.5----
2024-05-29 06:36 pm-------30.37-- 52.5----
2024-05-29 06:30 pm-------30.37-- 52.5----
2024-05-29 06:24 pm-------30.37-- 52.5----
2024-05-29 06:18 pm-------30.37-- 52.5----
2024-05-29 06:12 pm-------30.37-- 52.5----
2024-05-29 06:06 pm-------30.37-- 52.5----
2024-05-29 06:00 pm-------30.37+0.02- 52.5----
2024-05-29 05:54 pm-------30.37-- 52.5----
2024-05-29 05:48 pm-------30.37-- 52.5----
2024-05-29 05:42 pm-------30.37-- 52.5----
2024-05-29 05:36 pm-------30.36-- 52.5----
2024-05-29 05:30 pm-------30.37-- 52.5----
2024-05-29 05:24 pm-------30.36-- 52.5----
2024-05-29 05:18 pm-------30.36-- 52.5----
2024-05-29 05:12 pm-------30.36-- 52.7----
2024-05-29 05:06 pm-------30.36-- 52.7----
2024-05-29 05:00 pm-------30.36+0.02- 52.7----
2024-05-29 04:54 pm-------30.36-- 52.7----
2024-05-29 04:48 pm-------30.36-- 52.7----
2024-05-29 04:42 pm-------30.36-- 52.7----
2024-05-29 04:36 pm-------30.35-- 52.7----
2024-05-29 04:30 pm-------30.36-- 52.7----
2024-05-29 04:24 pm-------30.35-- 52.7----
2024-05-29 04:18 pm-------30.35-- 52.9----
2024-05-29 04:12 pm-------30.35-- 52.9----
2024-05-29 04:06 pm-------30.35-- 52.9----
2024-05-29 04:00 pm-------30.35+0.03- 52.9----
2024-05-29 03:54 pm-------30.35-- 52.9----
2024-05-29 03:48 pm-------30.35-- 52.9----
2024-05-29 03:42 pm-------30.35-- 52.9----
2024-05-29 03:36 pm-------30.35-- 52.9----
2024-05-29 03:30 pm-------30.35-- 52.9----
2024-05-29 03:24 pm-------30.35-- 52.9----
2024-05-29 03:18 pm-------30.35-- 52.9----
2024-05-29 03:12 pm-------30.35-- 52.9----
2024-05-29 03:06 pm-------30.35-- 52.9----
2024-05-29 03:00 pm-------30.35+0.04- 52.9----
2024-05-29 02:54 pm-------30.35-- 52.9----
2024-05-29 02:48 pm-------30.34-- 52.9----
2024-05-29 02:42 pm-------30.34-- 52.7----
2024-05-29 02:36 pm-------30.34-- 52.7----
2024-05-29 02:30 pm-------30.34-- 52.7----
2024-05-29 02:24 pm-------30.34-- 52.5----
2024-05-29 02:18 pm-------30.34-- 52.5----
2024-05-29 02:12 pm-------30.34-- 52.5----
2024-05-29 02:06 pm-------30.34-- 52.5----
2024-05-29 02:00 pm-------30.34+0.05- 52.5----
2024-05-29 01:54 pm-------30.34-- 52.5----
2024-05-29 01:48 pm-------30.34-- 52.5----
2024-05-29 01:42 pm-------30.34-- 52.5----
2024-05-29 01:36 pm-------30.33-- 52.5----
2024-05-29 01:30 pm-------30.33-- 52.3----
2024-05-29 01:24 pm-------30.33-- 52.3----
2024-05-29 01:18 pm-------30.33-- 52.3----
2024-05-29 01:12 pm-------30.33-- 52.3----
2024-05-29 01:06 pm-------30.32-- 52.3----
2024-05-29 01:00 pm-------30.32+0.05- 52.3----
2024-05-29 12:54 pm-------30.32-- 52.3----
2024-05-29 12:48 pm-------30.32-- 52.3----
2024-05-29 12:42 pm-------30.32-- 52.3----
2024-05-29 12:36 pm-------30.32-- 52.3----
2024-05-29 12:30 pm-------30.32-- 52.3----
2024-05-29 12:24 pm-------30.31-- 52.3----
2024-05-29 12:18 pm-------30.31-- 52.5----
2024-05-29 12:12 pm-------30.31-- 52.5----
2024-05-29 12:06 pm-------30.31-- 52.5----
2024-05-29 12:00 pm-------30.31-- 52.5----
2024-05-29 11:54 am-------30.31-- 52.5----
2024-05-29 11:48 am-------30.30-- 52.5----
2024-05-29 11:42 am-------30.30-- 52.3----
2024-05-29 11:36 am-------30.30-- 52.3----
2024-05-29 11:30 am-------30.30-- 52.2----
2024-05-29 11:24 am-------30.29-- 52.0----
2024-05-29 11:18 am-------30.29-- 52.0----
2024-05-29 11:12 am-------30.29-- 51.8----
2024-05-29 11:06 am-------30.29-- 51.8----
2024-05-29 11:00 am-------30.29+0.04- 51.8----
2024-05-29 10:54 am-------30.29-- 51.6----
2024-05-29 10:48 am-------30.29-- 51.6----
2024-05-29 10:42 am-------30.29-- 51.6----
2024-05-29 10:36 am-------30.29-- 51.6----
2024-05-29 10:30 am-------30.28-- 51.6----
2024-05-29 10:24 am-------30.28-- 51.6----
2024-05-29 10:18 am-------30.28-- 51.4----
2024-05-29 10:12 am-------30.28-- 51.4----
2024-05-29 10:06 am-------30.28-- 51.4----
2024-05-29 10:00 am-------30.27+0.04- 51.4----
2024-05-29 09:54 am-------30.27-- 51.4----
2024-05-29 09:48 am---------- 51.4----
2024-05-29 09:42 am---------- 51.3----
2024-05-29 09:36 am---------- 51.3----
2024-05-29 09:30 am---------- 51.3----
2024-05-29 09:24 am---------- 51.3----
2024-05-29 09:18 am---------- 51.1----
2024-05-29 09:12 am---------- 51.1----
2024-05-29 09:06 am---------- 50.9----
2024-05-29 09:00 am---------- 50.9----
2024-05-29 08:54 am---------- 50.9----
2024-05-29 08:48 am-------30.26-- 50.7----
2024-05-29 08:42 am-------30.26-- 50.5----
2024-05-29 08:36 am-------30.26-- 50.4----
2024-05-29 08:30 am---------- 50.4----
2024-05-29 08:24 am---------- 50.4----
2024-05-29 08:18 am-------30.26-- 50.0----
2024-05-29 08:12 am-------30.26-- 49.8----
2024-05-29 08:06 am-------30.26-- 49.8----
2024-05-29 08:00 am-------30.25+0.03- 49.6----
2024-05-29 07:54 am-------30.24-- 49.6----
2024-05-29 07:48 am-------30.24-- 49.5----
2024-05-29 07:42 am-------30.24-- 49.3----
2024-05-29 07:36 am-------30.24-- 49.3----
2024-05-29 07:30 am-------30.24-- 49.1----
2024-05-29 07:24 am-------30.24-- 49.1----
2024-05-29 07:18 am-------30.24-- 49.1----
2024-05-29 07:12 am-------30.24-- 49.1----
2024-05-29 07:06 am-------30.23-- 48.9----
2024-05-29 07:00 am-------30.23+0.03- 48.9----
2024-05-29 06:54 am-------30.23-- 48.9----
2024-05-29 06:48 am-------30.23-- 48.9----
2024-05-29 06:42 am-------30.23-- 48.9----
2024-05-29 06:36 am-------30.23-- 48.7----
2024-05-29 06:30 am-------30.23-- 48.7----
2024-05-29 06:24 am-------30.22-- 48.7----
2024-05-29 06:18 am-------30.22-- 48.7----
2024-05-29 06:12 am-------30.22-- 48.7----
2024-05-29 06:06 am-------30.22-- 48.7----
2024-05-29 06:00 am-------30.22+0.01- 48.7----
2024-05-29 05:54 am-------30.22-- 48.7----
2024-05-29 05:48 am-------30.22-- 48.7----
2024-05-29 05:42 am-------30.22-- 48.9----
2024-05-29 05:36 am-------30.22-- 48.9----
2024-05-29 05:30 am-------30.22-- 48.9----
2024-05-29 05:24 am-------30.22-- 48.9----
2024-05-29 05:18 am-------30.22-- 48.9----
2024-05-29 05:12 am-------30.22-- 48.9----
2024-05-29 05:06 am-------30.22-- 48.9----
2024-05-29 05:00 am-------30.22+0.02- 48.9----
2024-05-29 04:54 am-------30.22-- 48.9----
2024-05-29 04:48 am-------30.22-- 48.9----
2024-05-29 04:42 am-------30.21-- 48.9----
2024-05-29 04:36 am-------30.21-- 48.9----
2024-05-29 04:30 am-------30.21-- 49.1----
2024-05-29 04:24 am-------30.21-- 49.1----
2024-05-29 04:18 am-------30.21-- 49.1----
2024-05-29 04:12 am-------30.21-- 49.1----
2024-05-29 04:06 am-------30.21-- 49.1----
2024-05-29 04:00 am-------30.21+0.01- 49.1----
2024-05-29 03:54 am-------30.21-- 49.1----
2024-05-29 03:48 am-------30.21-- 49.1----
2024-05-29 03:42 am-------30.21-- 49.1----
2024-05-29 03:36 am-------30.21-- 49.1----
2024-05-29 03:30 am-------30.21-- 49.1----
2024-05-29 03:24 am-------30.21-- 49.1----
2024-05-29 03:18 am-------30.21-- 49.1----
2024-05-29 03:12 am-------30.21-- 49.1----
2024-05-29 03:06 am-------30.20-- 49.1----
2024-05-29 03:00 am-------30.21+0.00- 49.1----
2024-05-29 02:54 am-------30.20-- 48.9----